User: anonymous   Login
Location: Elk Forest
(39.5314°N, 75.8738°W)
Time: 00:24:35
(UTC-04:00)
Language:

Resurs 01 Rocket - Orbit

View from above orbital plane
View from above orbital plane
View from above satellite
View from above satellite

Ground track
Ground track

The orbit data is extracted from the following two-line orbital elements,

1 23343U 94074B   15086.99724676  .00000636  00000-0  99036-4 0  9995
2 23343 098.2230 100.9965 0007745 145.9558 243.9369 14.76454442 96979
Epoch (UTC): 27 March 2015 23:56:02
Eccentricity: 0.0007745
inclination: 98.2230°
perigee height: 635 km
apogee height: 646 km
right ascension of ascending node: 100.9965°
argument of perigee: 145.9558°
revolutions per day: 14.76454442
mean anomaly at epoch: 243.9369°
orbit number at epoch: 9697

The dashed part of the orbit path shows where the satellite is in the earth's shadow,  

DLR